Change the Weather History Date:

Wednesday, February 13, 2013

  Actual Average Record
Temperature  
Mean Temperature 74 °F -  
Max Temperature 78 °F 75 °F 81 °F (2015)
Min Temperature 69 °F 67 °F 63 °F (1998)
Cooling Degree Days 8    
Growing Degree Days 24 (Base 50)    
Moisture  
Dew Point 56 °F    
Average Humidity 57    
Maximum Humidity 65    
Minimum Humidity 49    
Precipitation  
Precipitation 0.00 in - - ()
Sea Level Pressure  
Sea Level Pressure 30.11 in    
Wind  
Wind Speed 9 mph (NE)    
Max Wind Speed 13 mph    
Max Gust Speed 20 mph    
Visibility 10 miles    
Events Rain    
Averages and records for this station are not official NWS values.
T = Trace of Precipitation, MM = Missing Value Source: NWS Daily Summary

Daily Weather History Graph

Daily Weather History Graph

Search for Another Location

Airport or City:

Trip Planner

Search our weather history database for the weather conditions in past years. The results will help you decide how hot, cold, wet, or windy it might be!

Date:

Astronomy

Feb. 13, 2013 Rise Set
Actual Time 7:02 AM HST 6:28 PM HST
Civil Twilight 6:39 AM HST 6:50 PM HST
Nautical Twilight 6:13 AM HST 7:17 PM HST
Astronomical Twilight 5:47 AM HST 7:43 PM HST
Moon 9:13 AM HST (2/13) 10:02 PM HST (2/13)
Length of Visible Light 12h 11m
Length of Day
11h 25m
Waxing Crescent, 15% of the Moon is Illuminated
Feb 13
Waxing Crescent
Feb 17
First Quarter
Feb 25
Full
Mar 4
Last Quarter
Mar 11
New

Hourly Weather History & Observations

Time (HST) Temp. Dew Point Humidity Pressure Visibility Wind Dir Wind Speed Gust Speed Precip Events Conditions
12:57 AM 71.6 °F 55.0 °F 56% 30.14 in 10.0 mi ENE 8.1 mph - N/A   Overcast
1:57 AM 71.6 °F 55.9 °F 58% 30.13 in 10.0 mi ENE 8.1 mph - N/A   Overcast
2:57 AM 69.8 °F 55.9 °F 61% 30.10 in 10.0 mi NE 10.4 mph - 0.00 in   Overcast
3:57 AM 69.8 °F 55.9 °F 61% 30.09 in 10.0 mi NE 9.2 mph 18.4 mph N/A   Overcast
4:57 AM 69.8 °F 55.9 °F 61% 30.08 in 10.0 mi NE 6.9 mph - N/A   Mostly Cloudy
5:57 AM 69.8 °F 51.1 °F 51% 30.11 in 10.0 mi NE 9.2 mph - N/A   Mostly Cloudy
6:57 AM 71.6 °F 55.0 °F 56% - 10.0 mi ENE 8.1 mph 17.3 mph N/A   Overcast
7:57 AM 71.1 °F 54.0 °F 55% 30.14 in 10.0 mi NE 10.4 mph - N/A   Overcast
8:55 AM 69.8 °F 57.2 °F 64% 30.17 in 6.2 mi NE 11.5 mph 18.4 mph 0.00 in   Overcast
8:57 AM 69.8 °F 57.0 °F 64% 30.17 in 10.0 mi NE 10.4 mph 18.4 mph 0.00 in   Overcast
9:57 AM 73.8 °F 57.0 °F 56% 30.18 in 10.0 mi NE 10.4 mph - N/A   Overcast
10:57 AM 75.6 °F 55.9 °F 50% 30.17 in 10.0 mi ENE 8.1 mph - N/A   Scattered Clouds
11:57 AM 74.5 °F 55.0 °F 51% 30.16 in 10.0 mi ENE 8.1 mph - N/A   Scattered Clouds
12:57 PM 75.7 °F 57.0 °F 52% 30.13 in 10.0 mi NNE 10.4 mph 16.1 mph N/A   Scattered Clouds
1:57 PM 77.4 °F 57.0 °F 49% 30.09 in 10.0 mi ENE 8.1 mph 17.3 mph N/A   Scattered Clouds
2:57 PM 78.4 °F 57.9 °F 49% 30.08 in 10.0 mi NE 9.2 mph - N/A   Partly Cloudy
3:57 PM 76.1 °F 57.9 °F 53% 30.07 in 10.0 mi ENE 10.4 mph 17.3 mph N/A   Overcast
4:57 PM 75.0 °F 57.0 °F 53% 30.04 in 10.0 mi ENE 8.1 mph - N/A   Overcast
5:57 PM 74.7 °F 57.9 °F 56% 30.05 in 10.0 mi ENE 10.4 mph - N/A   Mostly Cloudy
6:57 PM 71.8 °F 59.0 °F 64% 30.07 in 10.0 mi ENE 5.8 mph - N/A   Mostly Cloudy
7:57 PM 71.1 °F 57.0 °F 61% 30.09 in 10.0 mi ENE 5.8 mph - N/A   Partly Cloudy
8:57 PM 71.2 °F 57.9 °F 63% 30.10 in 10.0 mi ENE 9.2 mph - N/A   Overcast
9:57 PM 71.2 °F 57.9 °F 63% 30.11 in 10.0 mi NE 5.8 mph - 0.00 in   Overcast
10:57 PM 70.2 °F 57.9 °F 65% 30.11 in 10.0 mi NE 12.7 mph 19.6 mph N/A   Overcast
11:57 PM 70.2 °F 57.0 °F 63% 30.09 in 10.0 mi NNE 8.1 mph - 0.00 in Rain Light Rain